Find Starlink 3761

NORAD ID: 52262 Int'l Des: 2022-041 Owner: SPXS Country: US Constellation: starlink operational
LEOCIRCULAR

Current View

Loading 3D Globe...

About Starlink 3761

Starlink 3761 (NORAD 52262) is a starlink constellation satellite (v1.5) launched Apr 21, 2022 by SPXS of US. It operates in LEO, CIRCULAR orbit with a mass of 297.00 kg.

Upcoming Passes

Passes for default location (London). Set your location on the main map for personalized predictions.

Altitude History

Loading altitude history...

Two-Line Element Set

1 52262U 22041B 26254.25641632 .00001152 00000-0 45238-4 0 9999
2 52262 53.1616 350.5850 0001113 77.7750 282.3377 15.34386944242441
Epoch: Sep 11, 2026 • Age: 11 hours

Current Status

Altitude 462.7 km
Apogee / Perigee N/A
Velocity 7.64 km/s
Sub-Earth Point 19.65°N, 115.06°E
Launch Date Apr 21, 2022
Age 4.3 years
Type internet

Technical Details

Classification Payload
Mass 297.00 kg
Dry Mass 275.00 kg
Total Mass 297.00 kg
Length 0.20 m
Diameter 2.80 m
Span 9.00 m
Shape Box + pan
Manufacturer SPXS
Bus Type Starlink
Phase Status In Orbit
Owner/State SPXS/US

Most Searched